Regional Weather Roundup
Issued by NWS

Home | Current Version | Previous Version | Text Only | Print | Product List | Glossary On
Versions: 1 2 3 4 5 6 7 8 9 10 11 12 13 14 15 16 17 18 19 20 21 22 23 24 25 26 27 28 29 30 31 32 33 34 35 36 37 38 39 40 41 42 43 44 45 46 47 48 49 50
730
ASUS45 KBOU 242010
RWRCO

WEATHER ROUNDUP FOR COLORADO
NATIONAL WEATHER SERVICE DENVER/BOULDER CO
100 PM MST SAT FEB 24 2018

NOTE: "FAIR" INDICATES FEW OR NO CLOUDS BELOW 12000 FEET WITH NO
SIGNIFICANT WEATHER AND/OR OBSTRUCTIONS TO VISIBILITY.

COZ001>005-013-030-031-242100-
...NORTHWEST COLORADO...

CITY           SKY/WX    TMP DP  RH WIND       PRES   REMARKS
CRAIG          CLOUDY    20   9  62 W9        29.97F WCI   9
HAYDEN         PTSUNNY   19   7  59 W15G21    29.95F WCI   5
MEEKER         FAIR      22   0  38 W8        29.96F WCI  12
RANGELY        FAIR      27   5  39 W12G20    30.02F WCI  17
RABBIT EARS PA SNOW     N/A N/A N/A W16G26    29.71F VSB 1/2
STEAMBOAT SPGS CLOUDY    15   8  71 SW10G17   29.94S WCI   3
WALDEN         PTSUNNY   16  -2  45 SW24      29.79F WCI  -3
$$

COZ006>008-011-242100-
...WEST CENTRAL VALLEYS...

CITY           SKY/WX    TMP DP  RH WIND       PRES   REMARKS
GRAND JUNCTION PTSUNNY   33  10  38 CALM      30.04F
MONTROSE       FAIR      29   5  36 CALM      30.04F
EAGLE          FAIR      24   6  46 W14       29.96F WCI  12
RIFLE          FAIR      26   6  42 W15       30.01F WCI  14
DELTA          FAIR      34  -1  22 W3        30.04F
NUCLA          FAIR      28   9  43 CALM      30.07F
$$

COZ017>023-064>068-242100-
...SOUTHWEST COLORADO...

CITY           SKY/WX    TMP DP  RH WIND       PRES   REMARKS
DURANGO        FAIR      30   5  34 SW21G29   29.97F WCI  17
CORTEZ         FAIR      32   2  27 NW10      30.04F WCI  24
PAGOSA SPRINGS FAIR      28  -4  25 SW8       29.94F WCI  19
TELLURIDE      FAIR      19 -13  24 SW7       29.93F WCI   9
WOLF CREEK PAS PTSUNNY    3   1  92 SW21G29   29.83F WCI -18
$$

COZ009-010-012-014-032>034-037-058>063-242100-
...CENTRAL COLORADO...

CITY           SKY/WX    TMP DP  RH WIND       PRES   REMARKS
ASPEN          PTSUNNY   17   8  67 N10       29.87F WCI   5
BUENA VISTA    FAIR      26 -13  17 SW13G40   29.79S WCI  15
COPPER MTN     CLOUDY     5  -2  72 W26G38    29.65F WCI -18
BERTHOUD PASS  SNOW      -6 -17  59 MISG      29.49R VSB 1/4
COTTONWOOD PAS FAIR      19  -8  30 W32G48    29.69F WCI   0
GUNNISON       FAIR      22  -3  33 SW18G24   29.92F WCI   7
GRANBY         CLOUDY    15   6  70 W13       29.83F HAZE    WCI   0
KREMMLING      LGT SNOW  27  14  59 W9        29.87F WCI  17
LEADVILLE      FAIR      10  -4  53 NW23G40   29.74F BLWGSNOWWCI -10
MONARCH PASS   CLOUDY     1  -4  78 W43G49    29.81R WCI -27
SALIDA         FAIR      28  -3  26 W29G39    29.89R WCI  12
SUNLIGHT       LGT SNOW   5   1  85 SW10G25   29.79S WCI -10
WILKERSON PASS FAIR      10  -9  40 W16G30    29.61S WCI  -7
$$

COZ069>075-242100-
...SAN LUIS VALLEY/SANGRE DE CRISTO MOUNTAINS...

CITY           SKY/WX    TMP DP  RH WIND       PRES   REMARKS
ALAMOSA        FAIR      32 -12  14 NW16G24   29.85F WCI  21
DEL NORTE      FAIR      29  -2  25 W14G25    29.86F WCI  18
LA VETA PASS   FAIR      21  -8  27 SW28G43   29.83R WCI   3
SAGUACHE       FAIR      27  -9  20 NW31G47   29.86S WCI  10
$$

COZ035-036-038>040-242100-
...NORTHERN COLORADO FRONT RANGE...

CITY           SKY/WX    TMP DP  RH WIND       PRES   REMARKS
DENVER INTL AP FAIR      35   1  23 W29G44    29.72F WCI  22
AURORA         MOSUNNY   34   2  26 W21G28    29.73F WCI  22
FRONT RANGE AP MOSUNNY   37   0  20 W30G38    29.74F
ERIE MUNI ARPT FAIR      35  -2  20 W6        29.79F WCI  30
BOULDER MUN AP FAIR      34   0  23 N5        29.73R WCI  30
CENTENNIAL     FAIR      32   2  27 NW15G28   29.72F WCI  22
BROOMFIELD     MOSUNNY   30   5  34 W26G38    29.74S WCI  16
FORT COLLINS   FAIR      32   2  27 SW9G22    29.74S WCI  24
LONGMONT       FAIR      35   7  31 W31G43    29.75S HAZE    WCI  22
$$

COZ041-046-047-076>085-087-088-242100-
...PIKES PEAK/PALMER DIVIDE AND SOUTHERN FOOTHILLS...

CITY           SKY/WX    TMP DP  RH WIND       PRES   REMARKS
COLO. SPRINGS  FAIR      36  -7  15 NW22G36   29.74S
A. F. ACADEMY  FAIR      34  -6  17 W23G32    29.70S WCI  22
SCHRIEVER AFB  NOT AVBL
CHEYENNE MTN   FAIR      31  -8  18 N10G18    29.66S WCI  22
ELLICOTT         N/A    N/A N/A N/A NW16G31   29.72F
FALCON         FAIR      34 -11  13 W23G30    29.72F WCI  22
FORT CARSON    FAIR      39  -9  12 W13G18    29.72F
LIMON          FAIR      37   1  22 NW21G37   29.73F
MONUMENT HILL  FAIR      32  -4  21 W21       29.72F WCI  20
CANON CITY     SUNNY     43  -2  15 W21G32    29.76S
WALSENBURG     NOT AVBL
TRINIDAD       FAIR      42 -13   9 NW22G35   29.78F
$$

COZ042>045-048>051-090-091-242100-
...NORTHEAST COLORADO...

CITY           SKY/WX    TMP DP  RH WIND       PRES   REMARKS
GREELEY ARPT   FAIR      34   7  32 SW6       29.77S WCI  29
AKRON          FAIR      35   6  29 NW25G41   29.75S WCI  23
BURLINGTON     FAIR      39  18  42 W16G29    29.76F
WRAY           FAIR      37  10  32 NW28G37   29.77S
YUMA           NOT AVBL
STERLING       FAIR      37   7  28 NW35G43   29.75S
HOLYOKE        FAIR      37  12  35 NW29G40   29.75S
FORT MORGAN    FAIR      37   0  20 W20G36    29.76F
$$

COZ086-089-092>099-242100-
...SOUTHEAST COLORADO...

CITY           SKY/WX    TMP DP  RH WIND       PRES   REMARKS
PUEBLO         FAIR      45   0  15 W24G35    29.75F
LA JUNTA       FAIR      46   0  14 NW15G28   29.78F
LAMAR          FAIR      45  18  34 W7        29.78F
SPRINGFIELD      N/A     43  12  28 NW18G25   29.77F
$$




USA.gov is the U.S. government's official web portal to all federal, state and local government web resources and services.